TimeCST,TemperatureF,Dew PointF,Humidity,Sea Level PressureIn,VisibilityMPH,Wind Direction,Wind SpeedMPH,Gust SpeedMPH,PrecipitationIn,Events,Conditions,WindDirDegrees,DateUTC
12:53 AM,15.1,6.1,68,30.20,10.0,SSW,11.5,-,N/A,,Overcast,200,2013-01-25 06:53:00
1:53 AM,15.1,7.0,70,30.14,10.0,South,9.2,-,0.00,,Overcast,190,2013-01-25 07:53:00
2:53 AM,16.0,7.0,68,30.12,10.0,SSW,11.5,20.7,N/A,,Overcast,200,2013-01-25 08:53:00
3:53 AM,16.0,7.0,68,30.07,10.0,SSW,11.5,-,N/A,,Overcast,200,2013-01-25 09:53:00
4:53 AM,17.1,6.1,62,30.03,10.0,SSW,9.2,-,N/A,,Overcast,210,2013-01-25 10:53:00
5:46 AM,17.6,6.8,63,29.96,10.0,SW,12.7,21.9,N/A,,Overcast,230,2013-01-25 11:46:00
5:53 AM,18.0,6.1,60,30.01,10.0,SW,13.8,-,N/A,,Overcast,230,2013-01-25 11:53:00
6:53 AM,17.1,7.0,65,29.99,10.0,WSW,12.7,-,N/A,,Overcast,240,2013-01-25 12:53:00
7:53 AM,17.1,8.1,68,30.00,10.0,WSW,8.1,-,N/A,,Overcast,250,2013-01-25 13:53:00
8:19 AM,17.6,8.6,68,29.94,10.0,West,8.1,-,N/A,,Mostly Cloudy,260,2013-01-25 14:19:00
8:49 AM,17.6,10.4,73,29.94,10.0,WSW,9.2,-,N/A,,Mostly Cloudy,250,2013-01-25 14:49:00
8:53 AM,18.0,10.0,71,29.99,10.0,WSW,8.1,-,N/A,,Mostly Cloudy,250,2013-01-25 14:53:00
9:22 AM,19.4,10.4,68,29.95,2.5,West,12.7,20.7,0.00,Snow,Light Snow,270,2013-01-25 15:22:00
9:24 AM,19.4,12.2,74,29.95,1.8,North,-9999.0,-,0.00,Snow,Light Snow,0,2013-01-25 15:24:00
9:30 AM,19.4,12.2,74,29.95,3.0,North,-9999.0,-,0.00,Snow,Light Snow,0,2013-01-25 15:30:00
9:53 AM,18.0,3.0,52,30.01,10.0,WNW,24.2,36.8,0.00,,Unknown,290,2013-01-25 15:53:00
10:53 AM,17.1,3.0,54,30.04,10.0,WNW,20.7,29.9,N/A,,Clear,300,2013-01-25 16:53:00
11:53 AM,16.0,1.9,54,30.06,10.0,West,20.7,27.6,N/A,,Partly Cloudy,280,2013-01-25 17:53:00
12:53 PM,15.1,1.0,54,30.09,10.0,WNW,16.1,26.5,N/A,,Clear,300,2013-01-25 18:53:00
1:53 PM,15.1,1.0,54,30.10,10.0,WNW,20.7,26.5,N/A,,Clear,290,2013-01-25 19:53:00
2:53 PM,15.1,1.0,54,30.14,10.0,WNW,12.7,24.2,N/A,,Clear,290,2013-01-25 20:53:00
3:53 PM,12.9,-0.0,56,30.16,10.0,WNW,15.0,24.2,N/A,,Clear,300,2013-01-25 21:53:00
4:53 PM,12.0,-0.0,59,30.18,10.0,NW,12.7,-,N/A,,Clear,310,2013-01-25 22:53:00
5:53 PM,10.0,-0.9,61,30.21,10.0,NW,10.4,-,N/A,,Clear,310,2013-01-25 23:53:00
6:53 PM,9.0,-0.9,64,30.25,10.0,WNW,8.1,-,N/A,,Clear,290,2013-01-26 00:53:00
7:53 PM,8.1,-2.0,64,30.27,10.0,WNW,8.1,-,N/A,,Clear,300,2013-01-26 01:53:00
8:53 PM,7.0,-2.9,64,30.30,10.0,NW,10.4,-,N/A,,Clear,310,2013-01-26 02:53:00
9:53 PM,6.1,-2.9,67,30.31,10.0,NNW,9.2,-,N/A,,Clear,330,2013-01-26 03:53:00
10:53 PM,5.0,-4.0,66,30.33,10.0,NW,5.8,-,N/A,,Clear,320,2013-01-26 04:53:00
11:53 PM,3.9,-4.0,70,30.35,10.0,NNW,4.6,-,N/A,,Clear,330,2013-01-26 05:53:00